Location: Unspecified
(0.0000°N, 0.0000°E)
Time: 11:27:44
(UTC+00:00)

S-56A Canister/Altair - Pass Details

Date: 27 November 2019
Orbit: 633 x 2499 km, 38.9° (Epoch: 07 December)

Event Time Altitude Azimuth Distance (km) Brightness Sun altitude
Rises 23:33:13 0° 292° (WNW) 3,029 - -68.5°
Reaches altitude 10° 23:35:51 10° 281° (W) 2,033 - -68.6°
Maximum altitude 23:39:44 29° 220° (SW) 1,168 - -68.7°
Drops below altitude 10° 23:43:44 10° 159° (SSE) 2,099 - -68.8°
Sets 23:46:32 0° 148° (SSE) 3,149 - -68.8°
